Regional Weather Roundup
Issued by NWS

Home | Current Version | Previous Version | Graphics & Text | Print | Product List | Glossary Off
Versions: 1 2 3 4 5 6 7 8 9 10 11 12 13 14 15 16 17 18 19 20 21 22 23 24 25 26 27 28 29 30 31 32 33 34 35 36 37 38 39 40 41 42 43 44 45 46 47 48 49 50

987
ASUS43 KMKX 130821
RWRWI

WISCONSIN REGIONAL WEATHER ROUNDUP
NATIONAL WEATHER SERVICE MILWAUKEE/SULLIVAN WI
200 AM CST SAT FEB 13 2016

NOTE: "FAIR" INDICATES FEW OR NO CLOUDS BELOW 12,000 FEET WITH NO
SIGNIFICANT WEATHER AND/OR OBSTRUCTIONS TO VISIBILITY.

WIZ001-002-006>008-014>016-023>028-130900-
NORTHWEST WISCONSIN

CITY           SKY/WX    TMP DP  RH WIND       PRES   REMARKS
SUPERIOR ARPT  CLOUDY    -6 -18  57 W3        30.64R
ASHLAND        CLOUDY    -3  -8  79 NW9       30.56R HAZE    WCI -19
HAYWARD        CLOUDY    -8 -19  58 CALM      30.53R
SIREN          CLOUDY    -8 -18  61 CALM      30.60R
CUMBERLAND     CLOUDY    -8 -18  59 NW7       30.55R WCI -22
RICE LAKE      CLOUDY    -6 -17  57 NW5       30.58R WCI -17
CHETEK         CLOUDY    -6 -16  61 CALM      30.56R
LADYSMITH      CLOUDY    -6 -18  58 NW9       30.53R WCI -23
EAU CLAIRE     CLOUDY    -3 -17  51 NW6       30.58R WCI -15
MENOMONIE      PTCLDY    -2 -17  50 W7        30.60R WCI -16
NEW RICHMOND   CLOUDY    -5 -16  60 NW6       30.61R WCI -18
OSCEOLA        CLOUDY    -3 -15  58 NW6       30.65S WCI -15
$$

WIZ003>005-009-010-017-018-130900-
NORTH CENTRAL WISCONSIN

CITY           SKY/WX    TMP DP  RH WIND       PRES   REMARKS
MANITOWISH WTR CLOUDY    -6 -12  78 NW12G17   30.38R WCI -25
ARBOR VITAE    CLEAR     -4  -9  76 NW6       30.39R WCI -16
WOODRUFF       CLEAR     -4  -9  76 NW6       30.39R WCI -16
RHINELANDER    CLEAR     -9 -15  75 W9        30.38R WCI -26
EAGLE RIVER    CLEAR     -7 -13  76 W6        30.34R WCI -20
LAND O LAKES   LGT SNOW  -1  -6  80 NW8       30.35R WCI -16
PHILLIPS       CLOUDY   -10 -16  77 CALM      30.45R
TOMAHAWK       CLEAR     -8 -15  72 NW9       30.43R WCI -25
MEDFORD        CLOUDY    -8 -18  61 NW12      30.45R WCI -27
MERRILL        CLEAR     -5 -14  65 NW6       30.46R WCI -18
$$

WIZ029-030-035-036-043>047-130900-
CENTRAL WISCONSIN

CITY           SKY/WX    TMP DP  RH WIND       PRES   REMARKS
WAUSAU         CLEAR     -3 -15  56 NW12G22   30.45R WCI -21
MOSINEE        CLEAR     -4 -15  59 NW9       30.47R WCI -20
MARSHFIELD     CLOUDY    -5 -19  51 NW10      30.48R WCI -23
STEVENS POINT  CLEAR     -5 -17  56 NW5       30.48R WCI -16
WAUPACA        PTCLDY     0 -15  47 W9        30.50R WCI -15
WAUTOMA        CLOUDY    -4 -18  51 W10       30.52R WCI -21
WISC RAPIDS    CLOUDY    -4 -18  51 NW8       30.52R WCI -19
CAMP DOUGLAS   CLOUDY    -6 -17  59 NW8       30.55R WCI -22
$$

WIZ011>013-019>022-031-037>040-048>050-130900-
NORTHEAST WISCONSIN

CITY           SKY/WX    TMP DP  RH WIND       PRES   REMARKS
ANTIGO         CLEAR     -8 -14  72 W14       30.39R WCI -28
SHAWANO        PTCLDY    -1 -12  58 W7        30.47R WCI -14
OCONTO         CLEAR     -3 -12  66 W7        30.46R WCI -17
STURGEON BAY   CLEAR     -2 -11  65 W14       30.44R WCI -21
GREEN BAY      CLEAR     -3 -13  62 W10       30.48R WCI -20
MANITOWOC      CLEAR      0 -11  59 NW15G23   30.46R WCI -19
APPLETON       CLEAR     -2 -15  55 W14       30.45R WCI -21
CLINTONVILLE   CLEAR     -2 -15  55 W9        30.48R WCI -18
OSHKOSH        CLEAR     -1 -14  53 NW10      30.48R WCI -17
$$

WIZ032>034-041-042-053>061-130900-
SOUTHWEST WISCONSIN

CITY           SKY/WX    TMP DP  RH WIND       PRES   REMARKS
LA CROSSE      PTCLDY    -1 -14  53 NW6       30.61R WCI -13
SPARTA         PTCLDY    -2 -13  58 NW6       30.57R WCI -14
VIROQUA        PTCLDY    -4 -16  58 NW7       30.52R WCI -18
BOSCOBEL       PTCLDY    -2 -12  62 CALM      30.60R
PRAIRIE DU CHI PTCLDY     1 -12  54 NW5       30.61R WCI  -9
PLATTEVILLE    CLEAR      0  -9  65 W7        30.55R WCI -13
$$

WIZ056-057-062-063-064-067-068-130900-
SOUTH CENTRAL WISCONSIN

CITY           SKY/WX    TMP DP  RH WIND       PRES   REMARKS
REEDSBURG      CLOUDY    -2 -14  55 NW3       30.54R
BARABOO/DELLS  CLOUDY    -1 -17  48 NW6       30.53R WCI -13
LONE ROCK      PTCLDY    -1 -14  53 W5        30.58R WCI -11
MINERAL POINT  CLOUDY     1 -13  51 W5        30.52R WCI  -8
MADISON        CLEAR      0 -15  49 NW6       30.52R WCI -12
MIDDLETON      CLEAR      1 -13  51 NW3       30.53R
WATERTOWN      CLEAR      1 -12  53 NW9       30.51R WCI -14
MONROE         CLEAR      3  -9  55 NW8       30.51R WCI -10
JANESVILLE     CLEAR      5  -9  51 NW7       30.53R WCI  -7
$$

WIZ051-052-058>065-066-070>072-130900-
SOUTHEAST WISCONSIN

CITY           SKY/WX    TMP DP  RH WIND       PRES   REMARKS
MILWAUKEE      CLEAR      3 -12  49 NW13      30.49R WCI -14
WAUKESHA       CLEAR      0 -13  55 W15       30.49R WCI -20
MILWAUKEE/TIMM PTCLDY     1 -13  51 NW16      30.49S WCI -18
RACINE         CLEAR      3 -12  49 NW14      30.50R WCI -15
BURLINGTON     CLEAR      1 -12  55 NW12G17   30.50R WCI -16
KENOSHA        CLEAR      3 -10  54 NW14G22   30.49R WCI -15
FOND DU LAC    PTCLDY     0 -14  51 NW12      30.49R WCI -17
SHEBOYGAN      CLEAR      0 -12  57 NW10      30.46R WCI -16
WEST BEND      CLEAR      1 -13  51 CALM      30.47R
JUNEAU         CLEAR     -1 -14  53 NW7       30.50R WCI -14
$$

LSZ147-162-130900-
LAKE SUPERIOR

STATION/POSITION TIME  TEMP    WIND        PRES    WAVE
                       AIR SEA DIR/SP/G            HT/PER
                 (UTC) (F)     (DEG/KT/KT) (MB)    (FT/S)
DEVILS ISLAND    0800   -1     320/ 18/ 23 1037.1R
SAXON HARBOR     0800    2                 1033.9R
$$

LMZ867-665-643>646-130900-
LAKE MICHIGAN

STATION/POSITION TIME  TEMP    WIND        PRES    WAVE
                       AIR SEA DIR/SP/G            HT/PER
                 (UTC) (F)     (DEG/KT/KT) (MB)    (FT/S)
CHAMBERS ISLAND  0700    1     270/  6/ 12 1029.5R
SISTER BAY       0649    2     320/ 19/ 23   N/A
ALGOMA LAKESHORE 0711          300/  7/ 10   N/A
KEWAUNEE LAKESHO 0800   -1     300/  7/ 12 1029.9R
SHEBOYGAN LAKESH 0800    1     290/ 15/ 19 1033.7R
PORT WASHINGTON  0740    3     300/  9/ 13 1032.8R
MILWAUKEE LAKESH 0810    4     310/ 12/ 16   N/A
KENOSHA   LAKESH 0800    4     310/ 13/ 17 1032.2R
$$

TC  - TEMPERATURE IN CELSIUS
VSB - VISIBILITY IN STATUTE MILES
WCI - WIND CHILL INDEX
HX  - HEAT INDEX





USA.gov is the U.S. government's official web portal to all federal, state and local government web resources and services.